Wind_Speed
42 42 43 44 45 45 45 45 45 45 45 44 43 43 43 43 43 44 45 46 47 47 46 48 49 50 50 48 45 44 44 45 44 42 41 40 39 38 37 37 37 37 37
38 39 39 39 40 41 41 41 42 42 42 42 42 42 42 42 43 44 45 46 47 47 48 48 49 50 49 48 46 45 46 45 43 42 41 41 39 39 38 38 38 38 37
38 38 39 39 39 40 40 40 40 41 42 42 42 42 43 43 43 44 45 46 47 49 49 49 49 49 48 46 45 44 44 44 44 44 43 41 39 38 37 38 38 37 36
37 38 39 39 40 40 40 40 41 41 42 43 43 44 44 44 45 46 48 48 49 50 50 47 48 48 46 45 44 44 43 42 42 41 41 40 38 37 35 36 37 36 35
36 36 36 37 37 38 39 39 40 41 42 43 44 45 46 47 47 48 50 50 51 51 50 48 48 48 47 46 44 44 42 41 39 39 40 40 38 37 35 34 34 35 34
37 35 34 34 35 36 37 38 38 40 41 43 44 46 47 48 49 50 51 52 52 52 52 51 51 49 48 46 44 42 40 39 37 37 38 38 37 37 36 34 33 32 33
35 33 32 32 33 33 34 35 36 38 39 41 43 45 47 48 49 51 52 53 53 53 53 52 52 50 48 46 44 41 39 38 36 35 35 35 35 35 35 34 31 30 30
36 35 34 33 33 34 34 35 36 37 39 41 42 44 46 48 50 51 53 54 54 53 53 53 52 51 49 46 44 42 39 38 36 35 34 34 33 33 32 31 29 28 29
38 38 37 36 36 36 37 37 37 38 40 41 43 45 47 48 50 51 52 53 53 53 52 52 50 49 48 45 44 42 39 37 36 34 33 32 31 30 29 29 29 28 28
40 41 41 40 38 38 39 39 40 40 41 42 43 44 45 46 47 48 50 50 50 50 49 47 47 46 45 43 42 41 39 36 35 34 32 30 29 28 28 28 28 28 28
42 41 43 43 42 41 41 41 41 41 41 42 42 43 44 44 45 45 45 45 46 45 44 43 42 41 40 40 39 37 36 34 32 30 29 28 28 28 28 28 27 28 28
42 41 41 42 42 42 41 41 41 41 41 41 41 42 41 42 41 41 40 40 39 39 38 38 37 37 37 37 36 35 34 32 30 28 28 27 27 27 27 28 28 29 29
41 41 40 39 39 40 40 40 39 39 39 39 39 38 37 37 35 35 34 33 32 31 32 31 32 32 32 33 33 33 32 30 28 27 27 26 26 27 27 28 28 29 30
39 40 39 37 37 37 38 37 37 36 36 35 35 33 32 32 32 31 30 29 27 26 27 29 29 30 29 30 31 30 29 26 25 24 24 25 25 25 26 26 27 28 29
38 39 38 37 36 35 35 34 34 34 33 32 31 30 29 28 27 25 24 22 21 21 21 22 24 26 26 26 26 25 23 21 21 22 22 22 22 22 23 24 25 27 28
39 38 38 38 36 34 33 33 32 32 31 30 29 28 26 24 23 21 19 18 17 17 16 16 18 19 19 20 20 19 18 18 18 19 19 19 19 20 21 22 23 24 25
39 38 38 37 37 35 33 32 32 30 29 28 26 25 23 22 20 18 16 15 14 13 11 11 12 14 14 15 16 16 16 16 16 16 16 17 17 18 18 19 19 20 22
41 40 39 39 37 36 34 32 31 30 27 26 24 23 21 20 19 17 14 13 11 10 9 9 10 11 12 13 14 14 14 13 13 13 14 14 13 14 14 16 17 19 21
44 42 41 39 38 36 34 33 31 29 27 25 23 21 19 18 17 15 13 11 10 9 8 8 8 8 9 10 10 10 11 11 11 10 10 10 11 11 13 14 16 18 21
46 44 43 40 37 36 34 33 31 28 27 25 22 21 19 17 16 14 13 12 10 9 8 8 8 8 8 8 9 9 9 8 8 7 8 8 10 11 12 14 16 19 22
46 45 44 41 37 36 34 33 31 29 26 23 22 20 19 17 16 14 13 12 11 10 10 9 9 8 8 8 7 7 7 6 6 6 7 9 10 11 13 15 17 19 21
47 45 43 42 38 35 34 33 32 29 26 24 22 20 19 18 16 15 15 13 12 11 10 10 9 8 8 7 7 7 6 6 6 7 8 9 10 12 13 15 17 19 21
46 44 42 41 39 36 34 32 31 29 27 25 23 22 20 18 17 16 15 14 13 12 11 10 10 9 8 7 7 7 7 7 8 8 9 10 11 12 13 15 17 19 21
46 44 41 40 38 36 34 32 31 30 28 26 25 23 21 19 18 17 15 14 14 13 12 11 11 10 9 9 9 9 9 9 9 10 10 11 11 12 14 15 17 19 21
47 45 42 40 39 38 34 33 31 30 29 28 26 24 23 21 19 17 16 15 14 14 13 12 12 11 11 11 11 11 11 11 12 12 12 12 12 13 14 14 16 18 20
49 46 45 43 41 39 35 32 31 30 30 29 28 26 24 22 20 19 17 16 16 15 15 14 13 13 13 13 13 13 13 13 13 13 13 13 13 14 14 14 15 17 20
Wind_Direction
281 281 281 280 280 281 281 281 281 281 281 282 281 281 281 281 282 283 283 284 284 284 285 284 285 285 284 285 287 287 288 286 283 281 280 278 275 274 273 274 277 280 283
284 283 282 281 281 280 280 280 279 279 278 279 278 278 278 278 279 281 281 281 282 283 283 284 284 287 286 285 287 288 288 286 282 280 280 278 275 275 275 275 275 277 280
287 286 285 283 282 281 280 280 279 278 277 277 277 278 277 278 278 279 280 280 279 281 283 283 284 286 286 287 287 288 289 286 282 277 277 276 274 274 274 275 276 277 279
291 289 287 285 283 282 281 280 279 278 278 278 278 277 278 278 278 278 278 278 278 279 280 281 283 285 286 287 286 286 289 286 282 276 274 273 271 272 271 271 274 277 280
296 294 290 286 283 281 280 279 278 277 277 278 278 278 278 278 278 278 278 278 278 279 280 282 283 283 284 286 286 285 286 286 280 274 272 269 267 269 270 269 271 277 280
295 293 290 287 285 282 281 279 278 277 277 278 278 278 279 279 279 279 278 278 278 278 279 280 281 282 282 283 283 284 285 284 280 275 271 266 265 267 270 270 271 274 277
296 294 292 289 287 285 283 282 280 279 279 279 278 279 279 279 279 279 279 278 278 277 277 277 277 278 278 278 279 280 280 278 277 275 269 265 264 266 269 271 271 272 273
295 295 293 291 289 287 285 284 283 282 282 281 280 281 280 280 280 280 279 278 278 277 276 275 274 274 274 274 275 275 275 274 274 271 265 262 262 264 267 269 270 271 272
294 294 293 291 289 287 285 284 284 283 284 283 282 282 282 281 281 281 280 279 278 278 277 275 272 271 270 270 270 271 271 271 269 266 263 262 261 263 266 269 271 271 272
298 297 294 290 288 286 285 284 284 284 285 284 284 284 283 283 283 282 280 280 279 278 276 273 271 268 266 265 265 266 266 267 265 262 260 259 261 264 266 269 271 272 273
301 298 295 291 289 286 285 284 284 284 285 286 287 287 286 286 286 284 283 281 280 277 274 273 269 265 263 261 261 262 262 260 259 257 258 259 261 263 266 268 271 273 275
306 303 299 295 291 288 286 285 285 285 286 287 288 288 287 288 289 287 285 282 280 275 272 270 266 262 259 258 258 256 255 254 255 256 258 260 262 264 267 270 272 275 277
308 308 305 300 295 290 288 286 286 287 288 290 291 291 291 290 291 290 287 284 281 277 272 266 263 258 255 255 254 251 252 251 251 255 256 258 262 266 269 272 274 276 278
308 310 308 306 300 294 290 288 287 288 289 291 293 294 294 294 293 292 291 287 283 280 276 268 261 257 254 252 249 247 245 244 247 251 255 259 263 267 270 274 277 279 281
309 311 311 309 306 300 295 291 289 289 290 292 294 295 295 296 295 296 296 292 286 283 278 268 259 253 251 245 240 237 237 239 244 249 254 258 263 268 272 276 280 282 284
308 310 310 310 309 305 299 295 292 291 292 292 293 293 294 295 295 295 297 293 289 286 280 268 255 250 247 240 235 237 237 239 242 248 254 260 266 271 275 280 284 287 289
306 307 308 307 307 306 301 296 294 292 292 292 292 292 293 294 293 292 293 293 289 285 274 267 256 252 244 241 237 234 237 239 244 251 257 263 268 273 279 285 289 294 297
304 304 305 305 304 303 301 298 294 290 289 291 290 289 289 289 289 288 288 290 286 284 279 268 256 247 241 240 238 238 237 240 246 253 259 266 272 277 285 291 297 301 303
301 301 301 301 301 300 299 296 294 289 285 286 285 286 285 285 284 282 281 280 278 275 267 254 247 244 241 238 237 236 239 243 249 254 262 272 281 289 295 300 304 306 307
295 296 296 297 297 295 294 293 290 286 281 280 280 278 279 279 276 274 270 269 269 264 260 259 254 244 237 237 238 239 242 245 249 258 271 282 291 297 302 306 309 311 312
291 291 291 293 292 291 290 288 287 282 276 274 274 272 272 272 270 266 264 262 260 261 259 257 253 245 243 246 243 241 242 247 254 266 279 289 295 300 305 309 313 315 316
288 287 287 287 288 287 285 283 282 276 270 268 268 267 266 266 264 262 260 258 254 255 252 248 248 246 246 246 245 247 251 255 261 269 280 290 297 302 308 312 316 319 322
283 282 281 282 283 280 279 279 276 271 264 261 261 259 260 258 258 257 253 250 248 248 246 246 246 246 245 246 249 255 260 266 271 277 284 290 296 302 309 314 319 323 326
279 276 274 276 276 276 272 273 271 265 260 257 255 252 253 252 251 252 250 247 244 242 243 243 245 246 248 251 256 262 268 273 277 281 285 288 294 301 308 314 320 324 328
275 271 267 266 268 267 264 266 265 261 256 252 250 247 247 247 246 246 245 242 241 240 241 244 247 250 254 257 261 264 268 271 275 280 282 285 291 298 305 310 318 324 328
273 268 264 261 261 260 256 256 258 255 252 248 245 243 241 242 243 242 241 240 241 241 242 244 249 253 256 259 262 265 269 271 273 276 278 282 287 293 299 308 318 325 330
Height
5877 5876 5876 5874 5873 5872 5872 5872 5871 5869 5868 5868 5867 5866 5865 5864 5864 5863 5862 5860 5860 5859 5858 5857 5855 5854 5852 5851 5851 5850 5848 5847 5845 5845 5845 5846 5847 5847 5847 5847 5848 5848 5847
5869 5868 5867 5866 5865 5864 5863 5863 5862 5860 5859 5858 5857 5857 5856 5855 5855 5854 5853 5852 5850 5849 5848 5847 5845 5844 5842 5841 5841 5840 5839 5837 5836 5835 5835 5836 5838 5837 5838 5839 5839 5839 5839
5861 5860 5859 5858 5856 5855 5854 5853 5852 5851 5850 5849 5848 5847 5846 5845 5845 5844 5843 5841 5840 5839 5838 5837 5835 5834 5833 5833 5832 5830 5828 5827 5826 5825 5825 5826 5828 5829 5830 5829 5829 5830 5830
5852 5851 5850 5848 5847 5846 5845 5844 5843 5841 5840 5839 5838 5836 5836 5835 5835 5834 5832 5831 5829 5828 5827 5826 5825 5824 5824 5823 5822 5821 5819 5818 5817 5816 5816 5817 5817 5819 5821 5822 5820 5821 5822
5845 5843 5841 5840 5838 5837 5835 5834 5833 5832 5830 5829 5827 5826 5825 5824 5823 5822 5821 5820 5819 5817 5816 5816 5815 5815 5814 5813 5812 5810 5809 5808 5807 5807 5807 5807 5808 5809 5811 5814 5814 5813 5813
5839 5836 5834 5832 5830 5828 5827 5825 5824 5823 5821 5819 5817 5816 5814 5813 5811 5810 5809 5808 5807 5806 5806 5805 5804 5804 5803 5803 5802 5801 5800 5799 5798 5797 5797 5798 5799 5800 5801 5804 5805 5805 5804
5831 5829 5827 5825 5823 5820 5819 5817 5815 5814 5812 5810 5808 5806 5804 5802 5800 5798 5797 5795 5794 5794 5794 5793 5793 5792 5792 5792 5792 5792 5791 5790 5789 5788 5788 5789 5790 5791 5793 5794 5796 5796 5796
5825 5823 5820 5818 5816 5813 5811 5809 5807 5805 5803 5800 5798 5796 5793 5790 5788 5786 5784 5782 5780 5780 5780 5780 5780 5780 5781 5781 5781 5781 5781 5781 5780 5780 5780 5780 5782 5783 5784 5786 5787 5788 5788
5819 5815 5813 5810 5808 5805 5803 5800 5798 5796 5794 5791 5788 5785 5782 5779 5776 5773 5771 5769 5767 5766 5765 5765 5766 5766 5768 5769 5770 5771 5771 5771 5771 5772 5772 5773 5774 5775 5776 5777 5778 5780 5780
5811 5807 5804 5801 5799 5796 5794 5791 5789 5786 5784 5781 5778 5774 5771 5768 5764 5761 5758 5756 5754 5752 5751 5750 5751 5753 5755 5757 5758 5760 5761 5762 5763 5763 5764 5765 5766 5768 5769 5770 5771 5771 5772
5802 5799 5794 5791 5788 5786 5784 5781 5779 5776 5773 5770 5767 5763 5759 5756 5752 5749 5746 5743 5741 5739 5739 5738 5739 5741 5742 5745 5747 5750 5751 5753 5754 5755 5757 5758 5759 5761 5762 5763 5764 5764 5764
5794 5789 5785 5781 5778 5775 5773 5771 5768 5766 5763 5760 5756 5752 5748 5745 5741 5738 5734 5731 5729 5727 5727 5728 5728 5730 5732 5735 5738 5740 5742 5744 5746 5747 5749 5751 5752 5753 5755 5756 5756 5757 5756
5786 5781 5777 5772 5769 5765 5763 5761 5758 5756 5752 5749 5746 5742 5738 5735 5731 5728 5724 5721 5719 5719 5718 5718 5719 5721 5724 5726 5729 5731 5734 5736 5738 5740 5742 5744 5746 5747 5748 5749 5749 5748 5748
5779 5774 5768 5764 5760 5757 5754 5751 5749 5746 5743 5740 5737 5733 5730 5726 5723 5720 5716 5714 5712 5712 5711 5710 5712 5714 5717 5719 5721 5724 5726 5728 5731 5733 5735 5737 5739 5740 5741 5741 5741 5740 5740
5772 5767 5761 5756 5753 5749 5745 5743 5740 5738 5735 5732 5729 5726 5723 5719 5716 5713 5710 5708 5706 5705 5705 5704 5706 5708 5710 5712 5715 5717 5719 5722 5725 5727 5729 5731 5732 5733 5734 5734 5733 5733 5732
5764 5759 5754 5750 5745 5742 5738 5735 5732 5730 5727 5725 5722 5719 5716 5714 5711 5709 5706 5704 5703 5702 5701 5701 5702 5703 5706 5708 5710 5712 5714 5717 5719 5722 5724 5725 5726 5727 5727 5727 5726 5726 5725
5757 5752 5747 5743 5738 5735 5731 5728 5725 5723 5720 5718 5716 5713 5711 5708 5706 5704 5702 5701 5699 5699 5698 5698 5699 5700 5702 5704 5706 5708 5711 5713 5715 5717 5718 5719 5720 5721 5721 5721 5720 5719 5718
5748 5744 5739 5735 5731 5727 5724 5721 5718 5716 5714 5712 5710 5708 5706 5704 5702 5700 5699 5698 5697 5696 5696 5696 5696 5698 5699 5701 5702 5704 5707 5709 5710 5712 5713 5714 5715 5715 5716 5715 5714 5713 5712
5738 5734 5730 5726 5722 5719 5716 5714 5711 5709 5707 5706 5704 5702 5701 5699 5698 5697 5696 5695 5695 5694 5694 5694 5694 5695 5696 5698 5700 5701 5704 5705 5707 5708 5709 5710 5711 5711 5711 5710 5709 5708 5707
5727 5723 5720 5717 5714 5711 5708 5706 5704 5702 5701 5700 5698 5697 5696 5695 5694 5693 5692 5692 5692 5692 5692 5692 5692 5693 5694 5696 5697 5699 5701 5702 5703 5704 5705 5706 5707 5707 5706 5706 5705 5703 5701
5716 5712 5709 5706 5704 5701 5699 5697 5696 5694 5694 5693 5692 5692 5691 5690 5690 5689 5689 5689 5689 5689 5689 5690 5690 5692 5693 5694 5695 5697 5698 5699 5701 5701 5702 5703 5703 5703 5702 5701 5700 5698 5696
5702 5699 5697 5695 5693 5691 5689 5688 5687 5686 5686 5686 5686 5686 5685 5685 5685 5685 5685 5685 5686 5686 5686 5687 5688 5689 5691 5692 5693 5694 5696 5697 5698 5699 5699 5699 5699 5699 5698 5697 5695 5693 5691
5687 5685 5683 5682 5681 5680 5679 5678 5677 5677 5678 5678 5679 5679 5680 5680 5680 5680 5681 5682 5682 5683 5684 5685 5686 5687 5689 5690 5691 5692 5693 5694 5695 5695 5696 5696 5696 5695 5694 5693 5691 5689 5685
5671 5669 5668 5668 5668 5667 5667 5667 5667 5668 5669 5670 5671 5672 5673 5674 5675 5675 5677 5678 5678 5679 5681 5682 5683 5685 5686 5687 5688 5689 5690 5691 5691 5692 5692 5692 5692 5691 5690 5689 5687 5684 5681
5653 5652 5652 5653 5654 5653 5653 5655 5656 5658 5660 5661 5663 5665 5666 5668 5669 5670 5672 5673 5675 5676 5677 5679 5681 5682 5683 5684 5685 5686 5687 5687 5688 5688 5689 5689 5688 5688 5687 5685 5683 5680 5677
5633 5633 5635 5636 5637 5638 5638 5642 5645 5647 5650 5652 5654 5657 5659 5661 5663 5665 5667 5668 5670 5672 5673 5675 5677 5678 5680 5680 5682 5682 5683 5683 5684 5684 5685 5684 5684 5683 5682 5681 5679 5676 5673